{"data":{"norad_id":64286,"epoch":"2026-05-25T02:28:31.622592Z","epoch_age_seconds":56243,"freshness":"FRESH","line1":"1 64286U 25121D   26145.10314378  .00000025  00000+0  23375-4 0  9992","line2":"2 64286  86.5028  21.4010 0001686  88.3240 271.8087 13.24407587 47107","mean_motion":13.24407587,"eccentricity":0.0001686,"inclination_deg":86.5028,"raan_deg":21.401,"arg_perigee_deg":88.324,"mean_anomaly_deg":271.8087,"bstar":2.3375e-5,"rev_number":4710,"period_min":108.72785795964,"perigee_km":1166.6590841782,"apogee_km":1169.2036184263,"semimajor_km":7546.0683513023,"source":"CELESTRAK","updated_at":"2026-05-25T13:38:04.386629Z"}}